Simultaneous Nadir Overpasses (SNOs) Predictions

Prediction of SNOs between GOES-16 and METOP-B Satellite Orbit:

Table of predicted SNOs for the next 14.0 days since TLE Epoch: 4/12/2019
Index Date Time (GOES-16) GOES-16 Lat,Lon METOP-B Lat,Lon Distance(km) Time Diff (sec)
1 04/13/2019 14:16:11 -0.03, -75.21 -0.86, -71.51 422.04 80
2 04/15/2019 02:35:12 0.03, -75.20 -0.16, -76.11 102.99 80
3 04/16/2019 02:11:53 0.02, -75.20 0.92, -71.11 466.47 80
4 04/17/2019 14:30:45 -0.02, -75.22 0.08, -75.67 50.83 80
5 04/20/2019 02:31:47 0.00, -75.23 -0.02, -75.27 4.30 80
6 04/22/2019 14:27:21 -0.01, -75.27 -0.13, -74.84 49.57 80
7 04/24/2019 02:49:02 0.02, -75.29 -0.90, -79.44 473.30 80
8 04/25/2019 02:25:43 0.02, -75.30 0.19, -74.44 97.25 80
9 04/26/2019 14:47:15 -0.02, -75.34 0.81, -79.01 418.41 80




NCC Satellite Simultaneous Nadir Overpasses (SNOs) Prediction Service
